Washington State Current Weather Observations

 
 ASUS46 KSEW 140320
 RWRWA 
 
 WASHINGTON REGIONAL WEATHER ROUNDUP
 NATIONAL WEATHER SERVICE SEATTLE WA
 800 PM PDT SUN OCT 13 2019
 
 NOTE:"FAIR" INDICATES FEW OR NO CLOUDS BELOW 12,000 FEET WITH NO 
 SIGNIFICANT WEATHER AND/OR OBSTRUCTIONS TO VISIBILITY.
 
 WAZ507-509-555>559-140400-
 SEATTLE, TACOMA, EVERETT, AND VICINITY
   
 CITY           SKY/WX    TMP DP  RH WIND       PRES   REMARKS
 EVERETT        MOCLDY    50  43  77 CALM      30.01R                  
 BOEING FIELD   CLOUDY    56  45  66 CALM      30.00R                  
 RENTON         CLOUDY    53  45  74 CALM      30.00R                  
 SEATAC AIRPORT MOCLDY    56  43  61 VRB3      30.00R                  
 JBLM-MCCHORD   LGT RAIN  55  51  87 CALM      29.99S                  
 PUYALLUP       CLOUDY    52  50  93 CALM      29.99R                  
 BREMERTON      CLOUDY    52  46  80 CALM      30.00R                  
 JBLM-FT LEWIS  MOCLDY    52  52 100 CALM      30.00                   
 TACOMA NARROWS CLOUDY    51  48  89 CALM      30.00R                  
 
WAZ001-503-506-510-514-515-140400- NORTH INTERIOR CITY SKY/WX TMP DP RH WIND PRES REMARKS BELLINGHAM PTCLDY 49 43 80 CALM 29.99S FRIDAY HARBOR CLEAR 46 44 93 CALM 30.00S EASTSOUND CLEAR 46 45 93 CALM 29.98S PORT ANGELES CLEAR 48 45 89 W5 30.01R EDIZ HOOK FAIR 49 47 92 W8 30.01R PORT TOWNSEND FAIR 41 41 100 CALM 29.99S NAS WHIDBEY MOCLDY 49 42 77 SE5 30.03S ARLINGTON CLOUDY 51 44 77 CALM 30.01R BURLINGTON PTCLDY 46 41 81 CALM 30.00S
WAZ020-022-039-040-504-511-512-140400- SOUTHWEST INTERIOR CITY SKY/WX TMP DP RH WIND PRES REMARKS SHELTON CLEAR 51 45 79 W10 29.98R OLYMPIA CLEAR 50 43 77 CALM 30.00R CHEHALIS N/A 50 46 87 CALM 30.02R KELSO MOCLDY 54 47 77 CALM 30.02R VANCOUVER MOCLDY 57 46 66 NW3 29.99R SCAPPOOSE, OR CLEAR 53 44 71 N5 29.99S PORTLAND, OR MOCLDY 56 46 69 NW5 30.00R
WAZ021-516-517-140400- WASHINGTON COAST CITY SKY/WX TMP DP RH WIND PRES REMARKS FORKS CLEAR 43 42 97 CALM 30.01R HOQUIAM PTCLDY 51 46 83 NW5 30.03R ASTORIA, OR CLEAR 46 44 93 SW3 30.03R
WAZ019-023-024-040-567>569-140400- CASCADE MOUNTAINS AND COLUMBIA GORGE CITY SKY/WX TMP DP RH WIND PRES REMARKS STAMPEDE PASS MOCLDY 38 35 89 VRB3 29.96R TROUTDALE, OR MOCLDY 56 45 66 CALM 29.99R HOOD RIVER, OR MOCLDY 50 41 71 CALM 29.97S THE DALLES, OR CLEAR 57 40 52 W9 29.94R
WAZ026-027-041>044-520-521-140400- EAST SLOPES CITY SKY/WX TMP DP RH WIND PRES REMARKS OMAK CLEAR 43 33 68 NW7 29.90R WENATCHEE CLEAR 52 33 48 N7 29.90R ELLENSBURG PTCLDY 49 36 61 NW10 29.92R YAKIMA MOCLDY 53 37 54 W7 29.92R SUNNYSIDE ARPT MOCLDY 49 39 67 N3 29.91R YAKIMA TC MOCLDY 53 33 47 N3 29.91
WAZ028-034-035-140400- COLUMBIA BASIN CITY SKY/WX TMP DP RH WIND PRES REMARKS EPHRATA CLOUDY 51 33 50 SW5 29.89S MOSES LAKE MOCLDY 49 35 58 SE3 29.90S PASCO MOCLDY 53 35 50 CALM 29.91R RICHLAND ARPT CLOUDY 53 37 55 CALM 29.91S HERMISTON, OR MOCLDY 52 33 48 SE3 29.89S
WAZ036>038-140400- NORTHEAST WASHINGTON CITY SKY/WX TMP DP RH WIND PRES REMARKS SPOKANE GEIGER CLOUDY 45 37 73 CALM 29.91R SPOKANE FELTS CLOUDY 44 37 76 CALM 29.92R FAIRCHILD AFB CLOUDY 43 40 90 CALM 29.91R COEURDALENE,ID MOCLDY 42 39 89 CALM 29.92R DEER PARK MOCLDY 39 34 82 NE3 29.92R
WAZ029>033-140400- SOUTHEAST WASHINGTON CITY SKY/WX TMP DP RH WIND PRES REMARKS PULLMAN MOCLDY 42 30 62 CALM 29.93R LEWISTON, ID MOCLDY 50 41 71 SE5 29.92S WALLA WALLA MOCLDY 53 34 48 E3 29.91S PENDLETON, OR CLOUDY 54 29 38 S3 29.90S

Data from: http://www.wrh.noaa.gov/sew/get.php?pil=RWR&sid=WA&version=0&format=printer

Current Observations

Current Weather Conditions by Major Highway
Washington State Current Weather Observations   …  Oregon State Current Weather Observation



48 Hour Forecast


Seattle  …  Vancouver  …  Portland
————————————————————————————————————————
Bend  …  Spokane  …  Richland  …  Pendleton  …  Blue Mountains I-84  …  Yakima
————————————————————————————————————————
Goldendale, Washington Higher Elevations  …  Dallesport Airport - Goldendale  …  Bingen - White Salmon - Hood River  …  Index





Top of Page